Theta_e
339 339 342 343 344 342 340 338 336 336 335 336 337 336 340 340 340 341 340 350 348 346 343 342 341 339 334 331 330 328 328 327 326 326 325 325 325 326 327 327 326 327 327
340 338 341 341 341 341 340 339 333 334 336 336 337 341 342 341 338 336 336 341 346 345 343 340 338 336 333 330 328 327 326 325 324 325 325 326 324 325 325 325 325 326 326
339 338 340 342 342 341 337 336 336 335 336 338 341 341 343 342 340 336 334 334 337 344 343 341 336 334 333 329 327 326 324 323 323 325 325 325 324 323 323 324 324 325 325
338 339 340 342 344 338 337 338 339 337 336 337 339 342 340 341 338 335 332 331 329 332 340 341 336 334 332 328 326 324 326 325 324 325 324 324 323 322 322 323 323 324 325
340 342 340 339 338 335 335 336 336 335 336 337 338 340 341 337 338 333 330 329 327 328 330 338 338 335 331 327 325 324 325 324 325 325 324 323 321 321 322 323 322 323 324
341 344 340 340 338 334 336 334 335 338 338 337 337 334 337 338 332 329 328 328 327 327 327 327 328 329 331 326 326 326 325 325 324 324 323 322 321 321 321 322 322 322 322
346 345 342 339 336 335 335 338 339 336 332 331 330 325 331 333 329 329 329 325 320 319 321 323 323 321 323 329 326 324 324 324 324 323 322 320 321 321 321 322 321 320 320
345 345 342 339 335 334 337 340 338 335 330 326 324 320 320 325 318 325 321 319 316 317 317 318 318 316 316 318 318 322 322 323 323 322 320 319 319 320 321 320 319 319 320
339 343 342 339 340 338 339 339 339 334 323 324 321 319 311 314 311 315 310 311 310 312 314 314 314 314 313 311 314 316 319 319 320 319 318 318 318 318 318 318 318 318 319
342 344 341 340 341 340 339 339 339 334 325 320 321 320 315 312 308 305 309 308 311 311 309 310 310 311 310 310 315 317 316 316 316 316 316 316 316 317 317 318 318 318 318
345 345 342 340 339 339 338 338 330 329 323 322 317 312 312 308 309 307 303 303 304 307 307 307 307 308 309 309 308 310 313 313 312 312 313 314 314 315 316 317 317 318 318
342 342 343 338 337 337 331 325 324 323 316 313 312 310 309 306 305 303 301 300 300 303 305 305 306 306 306 306 312 311 312 311 311 311 311 311 313 313 314 315 316 317 318
338 339 339 336 336 328 325 324 322 320 315 311 310 308 307 306 305 303 301 299 299 300 301 305 305 304 305 304 306 309 310 311 310 310 310 309 310 310 311 313 314 314 315
340 339 337 336 328 324 322 320 319 320 316 312 309 307 306 305 304 303 301 298 295 296 297 298 302 301 301 303 308 308 302 309 309 309 308 308 308 308 309 310 310 311 312
337 334 333 327 323 321 320 320 318 314 312 311 308 308 305 302 302 302 301 299 296 292 292 298 298 299 299 300 306 300 301 308 309 309 308 307 306 306 307 307 308 308 309
329 325 322 319 317 318 318 318 314 312 310 308 306 305 302 301 303 301 300 299 297 295 293 298 298 298 298 301 304 300 302 307 306 308 308 306 305 305 305 306 306 306 307
326 323 319 317 317 318 318 314 312 310 308 306 305 302 301 301 300 298 298 297 297 298 295 296 297 296 296 296 299 302 304 303 301 307 306 304 304 303 304 304 304 304 305
320 318 317 317 318 316 314 313 309 307 305 303 302 300 300 302 298 299 296 296 297 296 295 292 293 294 295 297 299 299 301 304 301 305 306 305 302 302 302 303 303 303 302
321 319 318 317 317 314 310 308 306 304 302 301 300 299 298 300 298 298 296 297 296 298 295 293 292 294 295 296 296 297 298 297 302 304 304 303 302 301 301 302 303 302 301
317 318 317 314 311 308 306 305 303 302 302 301 301 301 300 298 297 298 297 296 295 294 293 292 293 293 293 295 295 294 294 295 298 299 302 301 301 300 300 301 303 302 301
315 313 311 310 309 306 305 301 301 299 298 298 299 302 303 305 306 303 298 295 294 293 292 290 290 290 295 296 295 298 292 292 295 297 297 296 297 296 296 299 302 301 300
311 309 307 306 304 305 303 304 303 299 298 296 295 297 299 301 306 307 306 303 297 291 290 288 288 288 289 292 297 297 297 288 289 297 296 293 294 296 297 298 302 300 299
306 305 304 304 302 302 300 300 300 296 296 296 295 296 298 300 302 300 304 302 301 301 297 290 288 289 289 291 292 297 297 294 289 296 293 290 292 294 297 298 302 300 299
303 302 302 300 299 299 298 297 298 297 296 295 295 294 295 296 298 299 297 296 295 297 298 297 292 292 293 294 294 296 293 294 292 293 293 288 292 293 297 298 301 300 299
299 299 298 297 296 295 296 296 297 296 294 294 295 296 295 294 297 297 296 295 298 298 302 301 299 298 296 297 299 296 299 292 289 290 293 290 291 290 292 294 298 300 299
297 297 295 295 297 295 295 295 296 296 293 294 295 295 298 295 295 295 294 293 295 296 297 298 297 296 296 297 301 297 297 293 289 289 294 293 294 291 289 295 297 297 296
Wind_Speed
5 5 5 5 6 4 4 5 5 5 6 6 5 5 3 5 7 4 3 12 10 12 13 11 11 9 7 7 6 6 8 7 7 9 11 13 16 17 19 19 20 20 21
6 6 6 6 6 5 6 6 4 4 7 4 6 6 6 6 6 6 4 6 12 11 12 11 10 8 7 7 6 5 5 4 4 8 12 15 16 18 19 21 21 21 21
9 7 7 7 7 5 6 4 5 5 5 3 6 4 5 8 8 6 5 4 6 11 10 11 10 9 9 7 5 4 2 1 3 9 13 14 17 20 22 23 23 22 22
11 8 7 7 7 4 5 4 5 4 4 4 2 1 1 2 6 6 7 5 4 4 8 11 10 9 8 6 4 2 2 5 6 10 15 16 21 22 23 22 21 23 23
12 9 7 5 5 4 4 4 4 2 2 2 3 2 2 3 4 4 6 5 6 5 4 9 9 9 7 4 3 1 3 4 9 12 18 20 22 25 20 20 21 23 23
8 9 6 7 6 4 5 4 3 1 2 3 2 2 1 1 2 3 3 3 5 5 5 5 4 4 6 2 3 4 6 9 13 17 20 21 22 22 22 23 22 20 22
6 8 9 5 4 5 6 5 3 4 1 1 3 2 3 3 4 2 1 2 4 2 2 4 1 1 2 8 7 7 9 15 17 20 21 22 23 23 24 20 22 23 24
8 6 6 9 6 4 6 6 5 3 2 1 4 2 1 2 4 4 4 4 5 3 5 5 6 6 5 3 5 8 11 13 18 21 23 23 22 21 20 22 23 23 22
16 6 6 7 6 6 5 4 5 6 4 1 2 5 2 3 2 3 4 5 6 4 5 8 9 7 5 3 4 7 13 15 19 21 21 20 21 22 22 21 21 21 22
7 4 10 8 6 4 5 5 4 3 5 5 2 3 3 4 4 1 3 4 6 7 5 5 6 6 5 4 9 13 14 16 19 19 20 20 20 19 20 22 23 23 23
8 7 7 5 9 5 4 6 4 5 2 4 3 3 3 4 4 3 2 2 3 4 3 5 5 5 6 5 3 8 15 15 15 16 17 18 18 20 22 22 23 24 25
7 10 12 12 9 5 5 5 3 3 5 5 3 3 3 3 2 4 3 2 3 2 5 5 5 4 3 4 8 15 13 13 13 16 15 18 19 21 22 22 23 23 25
6 10 11 12 8 7 7 7 5 4 3 5 5 4 4 3 3 3 4 1 2 1 4 4 3 3 4 3 6 13 13 14 16 15 16 17 18 21 22 24 24 24 24
8 11 9 4 7 9 10 10 6 4 4 6 7 6 4 4 3 3 4 4 2 3 3 3 3 4 4 5 8 13 6 14 16 16 17 18 19 21 22 23 23 23 24
4 9 9 13 11 6 9 14 8 7 6 6 6 6 4 3 5 5 4 2 4 3 1 4 2 5 4 4 7 5 6 15 17 16 17 19 19 21 22 23 23 23 24
10 13 13 15 13 12 11 12 2 10 9 6 6 7 6 4 6 5 4 3 2 4 3 2 3 3 4 5 8 5 6 13 15 15 16 19 17 20 21 22 23 24 24
8 11 16 17 16 14 16 14 9 11 9 8 6 9 7 4 5 4 4 2 4 4 6 2 3 2 4 5 6 7 7 5 4 13 15 19 18 18 21 22 24 24 25
9 11 12 18 13 12 13 14 13 9 8 7 8 8 7 5 7 6 3 6 6 5 4 4 3 3 2 5 6 6 6 4 3 11 14 14 18 18 20 22 24 25 25
7 7 11 15 13 11 13 13 14 12 8 10 6 6 4 7 7 4 5 6 4 6 5 3 1 2 1 3 5 4 5 6 4 12 13 13 14 17 19 21 24 26 25
13 11 11 15 18 19 17 16 16 14 9 8 5 5 5 6 7 6 5 5 5 5 4 4 2 3 2 4 4 4 5 4 5 6 9 11 12 15 17 21 24 27 25
14 15 19 17 19 18 14 16 13 10 5 4 3 4 5 10 14 10 4 5 5 4 4 4 3 4 5 6 8 7 3 4 3 6 5 4 5 5 7 13 19 25 25
15 16 18 17 19 15 25 18 10 6 6 4 4 5 5 9 11 13 16 15 7 5 5 2 2 2 4 3 8 7 3 3 4 4 4 5 4 7 7 8 20 21 24
16 17 17 16 18 17 28 19 15 7 6 4 6 6 6 4 8 6 12 14 13 13 7 4 2 2 3 3 4 8 7 3 2 4 3 4 4 5 6 6 19 22 23
17 15 14 14 15 13 25 20 17 10 7 8 6 4 6 6 6 7 6 6 6 5 4 3 2 3 4 5 3 3 3 5 3 4 3 3 3 4 4 5 22 23 23
16 13 13 14 13 14 22 18 17 11 9 8 6 7 6 6 8 8 6 6 4 4 5 6 4 6 8 8 7 4 7 4 3 3 2 2 4 4 3 4 11 24 20
14 11 13 12 15 14 12 15 14 10 9 6 7 7 13 11 14 9 7 5 5 4 4 4 4 6 7 7 7 3 3 4 2 4 3 5 4 4 5 3 9 10 11
Wind_Direction
210 209 215 205 212 205 216 229 230 235 251 244 256 239 230 145 152 156 150 172 162 154 140 133 135 140 136 121 100 78 64 47 23 12 356 349 343 338 338 327 318 316 311
205 208 217 218 221 206 222 226 221 226 251 252 250 226 176 163 158 154 166 172 167 158 148 153 154 153 152 139 118 105 87 50 5 356 347 349 348 338 329 321 316 309 301
205 206 216 219 226 213 220 220 228 235 241 230 242 177 174 172 176 164 166 171 167 161 163 170 171 167 168 156 146 113 114 291 349 345 338 347 339 329 322 316 309 306 304
204 211 215 220 225 210 209 210 213 211 210 209 268 244 45 111 140 162 166 160 163 172 180 190 183 185 183 175 150 162 310 37 348 336 340 333 330 325 323 311 312 308 302
203 206 213 217 214 202 207 194 215 188 199 180 154 86 126 151 165 151 160 158 178 178 190 208 196 197 195 183 187 334 45 2 337 338 332 330 328 323 316 312 308 303 311
218 198 190 206 191 186 209 210 183 128 172 148 102 95 84 131 115 155 171 125 206 177 198 199 203 206 198 182 42 57 9 349 344 336 333 332 324 323 319 315 323 321 319
222 229 209 186 185 195 196 215 160 156 50 162 106 23 27 70 66 48 62 71 91 189 181 197 155 125 30 75 69 33 359 355 338 336 334 329 327 324 318 328 331 327 322
245 229 240 200 182 196 202 196 172 130 205 206 128 101 110 359 31 19 54 58 24 14 77 81 76 77 85 91 56 19 6 346 343 338 337 336 329 332 341 338 334 330 328
254 243 271 272 190 186 205 187 179 158 161 353 102 143 120 190 116 342 25 47 22 47 66 72 79 91 87 68 58 27 5 352 348 349 341 345 344 344 342 342 337 332 329
210 176 112 312 265 191 184 180 181 173 145 149 81 50 70 135 148 146 347 28 46 55 67 75 71 74 55 33 28 9 5 3 357 352 350 350 345 348 346 343 339 338 333
204 189 155 153 295 252 200 147 149 189 120 136 129 153 66 54 77 124 153 337 49 36 64 70 66 55 32 16 347 359 8 6 8 2 356 353 349 351 346 345 344 344 341
171 181 176 190 205 249 153 115 149 169 112 99 119 128 139 146 167 123 109 240 150 47 43 58 64 51 21 353 13 12 8 3 2 358 358 354 356 353 351 351 350 347 345
188 186 189 193 180 145 114 116 115 102 101 96 100 96 82 95 113 105 107 197 137 67 96 51 59 39 19 342 18 16 2 1 6 4 6 358 1 358 355 356 352 351 351
200 186 181 202 119 114 116 105 92 97 93 93 93 81 87 79 94 119 135 135 44 18 29 118 12 18 356 347 20 12 332 359 8 10 9 6 8 1 359 355 353 350 349
144 121 141 125 110 106 123 113 117 94 82 75 74 71 76 49 49 63 74 135 162 148 238 4 39 21 343 340 356 348 328 5 6 6 14 13 9 2 359 354 354 353 353
130 125 122 112 107 122 109 83 69 81 83 67 65 78 62 52 68 45 70 61 57 129 109 109 20 352 341 333 354 350 349 3 2 7 18 15 6 3 358 358 357 357 356
139 136 132 125 127 140 119 112 101 88 96 91 95 90 74 55 71 58 58 56 62 84 114 53 54 328 323 345 340 347 349 345 338 359 18 20 6 1 1 2 3 4 2
108 112 126 122 126 106 126 113 100 102 95 99 82 79 79 95 71 52 43 49 58 52 107 109 0 323 9 342 327 328 319 325 357 360 5 11 3 0 3 3 8 9 6
91 106 124 113 108 106 83 86 82 69 69 64 44 78 93 86 77 74 62 72 58 63 55 104 82 286 296 352 315 323 335 1 8 6 3 358 348 2 7 2 8 11 6
104 103 94 96 89 88 77 68 75 70 50 53 24 42 78 81 87 76 68 69 61 74 73 76 27 13 3 313 310 344 334 14 354 355 351 358 351 356 3 8 8 11 5
100 104 103 95 94 88 83 80 75 77 78 64 49 55 49 98 90 86 81 57 68 78 78 61 49 28 20 5 359 349 320 326 312 6 320 318 318 335 343 358 10 13 8
101 99 96 97 97 98 97 98 93 76 57 24 42 35 39 70 101 87 82 76 85 101 91 93 15 21 337 312 3 358 336 332 355 342 328 294 319 352 358 0 14 18 9
99 96 100 104 104 106 99 93 101 96 86 61 42 30 50 62 102 86 85 76 75 77 84 119 96 20 306 296 299 2 3 336 279 303 336 297 321 315 352 356 23 20 14
101 102 101 105 105 112 108 108 103 100 90 62 53 48 53 55 92 100 99 82 66 49 41 53 60 272 251 290 288 264 257 293 301 301 316 301 312 308 323 352 19 18 13
95 96 98 96 104 108 104 117 114 102 80 62 50 50 62 63 72 87 91 78 63 38 61 39 2 340 343 347 352 348 360 10 332 292 312 288 308 309 311 344 19 14 9
94 99 100 100 103 104 111 100 95 93 89 77 55 48 56 69 67 65 81 79 64 21 8 351 336 349 344 340 357 2 324 354 328 332 309 357 318 359 341 356 12 12 4